Location: Corona
(40.7470°N, 73.8601°W)
Time: 06:29:06
(UTC+00:00)

Cosmos 389 Rocket - Pass Details

Date: 22 September 2019
Orbit: 444 x 478 km, 81.1° (Epoch: 19 October)

Event Time Altitude Azimuth Distance (km) Brightness Sun altitude
Rises 23:38:41 0° 360° (N) 2,449 6.3 -9.5°
Reaches altitude 10° 23:40:54 10° 10° (N) 1,574 5.2 -9.9°
Maximum altitude 23:44:02 33° 76° (ENE) 776 3.1 -10.5°
Drops below altitude 10° 23:47:09 10° 142° (SE) 1,568 4.7 -11.0°
Enters shadow 23:47:19 - 143° (SE) 1,632 4.8 -11.1°
